Theta_e
292 291 291 290 290 289 288 288 288 287 287 287 287 286 286 286 286 285 285 285 286 286 285 285 284 282 281 281 281 280 280 279 279 279 278 278 278 278 278 278 278 278 278 277 277 277 277 277 277 277 277 277 278 278 278 278 278 278 278 278 278 279 279 280 280 280 280 280 280 280 280 279 279 279 279 280 280 280 281 281 281 281 281 281 281
292 291 290 290 289 289 288 287 287 286 286 286 286 286 285 285 285 285 285 285 286 286 285 284 282 281 281 281 280 280 279 279 278 278 278 277 277 277 277 277 277 277 276 276 276 276 275 275 275 275 275 275 275 275 275 275 275 275 275 276 276 277 277 278 278 278 278 279 279 278 278 278 278 278 278 278 279 279 279 280 280 280 279 279 280
291 291 290 289 289 288 287 287 286 286 285 285 285 285 284 284 284 284 285 285 285 285 284 282 281 281 280 280 280 279 279 278 278 277 277 277 277 276 276 276 276 275 275 275 275 274 274 274 274 274 274 273 273 273 273 273 273 273 273 274 274 275 274 274 275 275 276 276 276 277 277 277 277 277 277 277 278 278 278 278 278 278 278 278 279
291 290 290 289 288 288 287 286 285 285 284 284 284 284 284 284 284 284 285 285 284 283 282 281 280 280 280 279 279 278 278 278 277 277 276 276 276 276 275 275 275 274 274 274 273 273 273 273 272 272 272 272 272 272 272 272 272 272 272 273 273 273 273 273 273 273 274 275 275 276 276 276 276 276 276 277 278 278 278 278 277 278 278 278 278
290 290 289 288 288 287 286 285 284 284 284 283 283 283 283 283 284 284 284 284 283 282 280 280 280 279 279 279 278 278 277 277 276 276 276 275 275 274 274 274 273 273 273 272 272 272 272 272 272 272 271 271 271 271 271 272 272 272 272 272 272 272 272 272 272 273 273 274 274 275 275 275 275 275 276 277 277 277 277 277 277 277 278 278 279
290 289 288 288 287 286 285 284 284 283 283 283 283 283 283 283 283 284 284 283 281 280 280 279 279 279 279 278 278 277 276 276 276 276 275 275 274 274 273 273 272 272 272 272 272 271 271 271 271 271 271 271 271 271 271 271 271 272 272 272 272 272 272 272 272 272 273 273 273 274 274 274 274 275 276 276 277 277 277 277 277 278 278 279 280
289 288 288 287 286 285 285 284 283 283 283 282 282 282 282 283 283 283 282 281 280 279 279 279 279 278 278 277 277 276 275 275 275 275 274 274 273 273 272 272 272 271 271 271 271 271 271 271 272 272 272 271 271 271 272 272 272 272 272 272 272 272 272 272 272 273 273 273 273 273 274 274 274 275 275 276 276 277 277 277 278 278 279 280 281
288 288 287 286 285 285 284 283 283 282 282 282 282 282 282 282 283 282 281 280 279 279 279 278 278 277 277 276 276 275 275 275 275 274 273 273 272 272 272 271 271 271 271 272 272 272 272 272 272 272 272 272 272 272 272 272 272 272 272 272 272 272 272 273 273 273 273 273 273 274 274 274 275 275 275 276 276 277 277 277 278 278 279 279 280
288 287 286 286 285 284 284 283 282 282 281 281 281 281 282 282 281 281 280 279 279 278 278 278 277 276 276 276 275 274 274 275 275 274 273 272 272 272 271 271 272 272 272 272 272 273 273 273 273 273 273 273 273 274 274 274 274 274 274 274 274 273 273 273 273 273 273 274 274 274 274 275 275 275 276 276 276 277 277 277 277 278 278 279 279
287 286 286 285 284 284 283 282 282 281 281 281 281 281 281 281 280 280 279 279 278 278 277 277 276 276 275 275 274 274 274 275 274 273 273 273 273 272 272 272 272 273 273 273 273 273 273 273 273 273 274 274 274 275 275 275 275 275 276 276 276 275 275 275 275 274 274 274 274 275 275 275 275 275 276 276 276 276 277 277 277 278 278 279 280
287 286 285 285 284 283 283 282 281 281 281 280 280 280 280 280 280 279 278 278 278 277 277 276 276 276 275 274 274 274 274 274 273 273 273 274 274 274 273 273 273 273 274 274 274 274 274 274 274 274 274 274 274 274 274 275 275 275 276 276 276 276 276 276 276 276 276 275 275 275 275 275 276 276 276 276 276 276 277 277 278 278 279 280 281
286 285 285 284 284 283 282 282 281 281 280 280 280 280 280 279 279 278 277 277 277 276 276 276 276 275 275 274 273 274 274 274 273 273 274 274 275 275 274 274 274 274 274 274 274 274 274 274 274 274 273 274 274 274 274 275 275 275 275 276 276 276 276 276 276 276 276 276 276 276 276 277 277 276 276 277 277 277 277 278 278 279 280 280 281
286 285 285 284 283 283 282 281 281 280 280 280 280 280 279 279 278 277 276 276 276 275 275 275 275 274 273 273 273 274 274 274 272 273 274 274 275 275 275 275 275 274 274 274 274 274 274 273 273 273 273 274 274 274 274 274 275 275 275 276 276 276 276 276 276 276 276 276 276 276 277 277 277 277 277 278 278 278 279 279 280 280 280 280 281
285 285 284 283 283 282 281 281 280 280 279 279 279 279 278 277 276 276 275 275 275 274 274 274 274 273 272 272 273 274 274 273 272 272 273 274 274 275 275 275 275 274 274 273 273 273 273 273 273 274 274 274 274 274 275 275 275 276 276 276 276 276 276 276 276 276 276 276 276 276 275 276 276 277 277 278 279 279 279 279 280 280 280 280 280
285 284 283 283 282 281 281 280 279 279 278 278 278 277 277 276 275 275 275 275 275 274 274 274 274 273 273 273 273 274 274 272 272 272 273 274 274 275 275 274 274 273 273 273 273 273 273 273 274 274 274 274 275 275 275 276 276 277 277 277 276 276 276 275 275 275 275 275 275 275 275 275 275 276 276 277 278 278 278 279 279 279 279 279 279
284 283 283 282 282 281 280 279 278 278 277 277 276 275 275 274 274 274 274 274 274 274 274 274 274 274 274 273 273 274 274 272 271 272 273 273 274 274 274 273 273 273 273 273 273 273 273 274 274 274 275 275 275 276 276 277 277 277 276 276 276 276 276 276 276 276 276 276 276 276 276 276 277 277 277 277 278 278 278 278 278 279 279 279 279
283 283 282 282 281 280 280 279 277 277 276 276 275 274 274 274 274 274 274 273 273 273 274 274 274 274 273 272 272 273 273 272 271 271 272 273 274 274 274 273 273 273 273 273 273 274 274 274 275 275 275 276 276 276 276 277 277 276 276 276 276 276 276 276 276 276 276 276 276 277 277 277 277 278 278 278 279 279 279 279 279 279 279 279 280
283 283 282 281 280 280 279 278 277 276 276 275 275 274 274 274 274 274 274 274 274 274 274 274 273 273 273 272 272 272 272 271 271 271 272 273 274 274 274 274 274 274 274 274 274 274 275 275 275 276 276 275 275 275 276 276 276 276 276 276 276 276 276 276 276 276 276 276 276 276 277 277 277 278 278 278 279 279 280 280 280 280 280 280 281
283 282 281 281 280 279 278 278 277 276 275 275 275 275 274 274 274 274 274 274 274 274 274 274 273 272 272 271 270 270 270 271 271 271 272 273 274 274 274 274 274 274 274 274 275 275 275 275 275 275 275 274 275 275 276 276 276 276 276 276 276 276 275 275 275 276 276 276 276 276 276 277 277 277 277 278 278 279 279 280 280 280 281 281 281
283 282 281 280 279 278 278 277 277 276 275 275 275 275 275 274 273 273 273 274 274 273 273 272 272 271 271 270 270 269 270 270 270 271 272 273 274 274 274 274 274 274 274 275 275 276 275 275 274 273 273 274 275 276 276 276 276 276 276 275 275 274 274 275 275 276 276 277 277 277 277 277 277 277 277 277 277 277 278 278 279 280 280 281 281
282 281 280 279 278 277 277 276 276 276 276 275 275 274 274 274 274 274 273 273 272 272 271 271 271 270 270 270 269 269 270 270 271 271 272 273 273 274 274 274 274 275 275 275 275 275 274 273 272 272 273 274 275 275 275 275 275 275 274 274 274 274 275 275 275 275 276 276 277 277 278 277 277 277 277 277 278 278 278 279 279 279 280 281 281
281 280 278 277 277 276 275 276 276 275 274 274 274 273 273 274 274 274 273 272 272 271 271 270 270 270 269 269 269 270 270 271 271 271 272 272 273 274 274 275 275 275 275 275 274 274 273 272 272 272 273 274 274 274 274 274 274 273 272 273 274 274 274 274 273 273 274 275 277 278 278 278 278 278 278 278 279 279 279 279 279 279 280 281 281
280 278 277 276 275 275 275 274 274 274 273 274 274 273 272 272 273 273 272 272 271 270 269 269 269 269 269 269 270 270 270 270 270 271 271 272 273 274 275 275 275 275 275 274 273 272 272 272 272 273 273 273 273 273 273 272 272 272 272 273 273 273 272 272 271 272 273 274 275 277 279 278 278 278 278 278 279 279 279 279 279 280 280 281 282
278 277 276 275 274 274 273 273 273 273 274 273 273 272 271 271 271 271 271 270 269 268 268 268 268 269 269 269 270 270 270 270 270 271 271 272 273 274 274 275 275 274 274 273 272 272 272 272 272 272 272 272 271 271 271 270 270 271 271 272 272 271 271 270 271 271 272 273 274 275 277 278 279 279 279 280 280 280 280 280 281 281 281 282 283
276 275 274 274 273 272 272 271 271 272 273 273 272 271 270 270 269 269 269 269 268 268 268 268 269 269 269 270 270 270 270 270 270 270 271 272 273 273 274 274 274 273 273 272 271 272 272 271 271 270 270 270 270 269 269 269 269 270 270 270 270 270 269 270 270 271 271 272 273 274 275 276 277 278 278 279 279 280 281 281 281 282 282 283 283
275 274 273 272 271 271 270 270 270 270 271 272 273 272 271 270 269 268 268 268 268 268 269 269 269 269 270 270 270 270 270 270 270 270 271 272 272 273 273 273 273 272 272 271 271 271 270 269 269 269 269 268 268 268 268 268 268 269 269 269 269 269 269 270 270 271 271 272 272 273 273 274 275 275 276 276 277 278 280 281 282 282 283 284 284
274 273 272 270 269 269 269 268 268 269 269 270 271 271 271 271 270 268 268 268 268 268 269 269 269 269 270 270 270 270 270 270 270 270 271 272 273 273 272 272 272 271 271 271 271 270 268 267 267 267 267 267 267 267 267 267 267 267 268 268 268 268 269 269 270 270 271 271 271 272 272 273 273 274 274 275 276 277 279 281 283 284 284 285 285
273 272 270 269 268 268 268 267 267 267 268 268 269 269 270 270 270 269 269 269 269 268 268 269 270 270 270 270 270 270 270 270 270 271 272 273 273 273 273 272 272 271 271 271 270 267 266 266 266 266 266 266 266 266 266 266 266 267 267 267 268 268 269 269 270 270 270 271 271 271 272 272 272 273 274 274 275 276 278 280 282 284 285 286 286
272 270 269 268 268 267 267 267 267 267 267 268 269 270 270 270 269 269 269 270 270 270 269 269 270 270 270 269 269 270 270 270 271 272 273 273 273 273 272 272 271 271 271 270 268 266 265 265 265 265 265 265 265 265 266 266 266 266 267 267 268 268 268 269 269 269 270 270 271 271 271 272 272 273 273 273 274 275 276 278 280 282 285 286 287
271 269 268 268 268 267 267 266 267 268 268 268 268 268 269 269 269 270 269 270 270 270 270 270 270 269 269 269 270 270 270 270 272 272 272 272 272 272 272 271 271 271 270 269 266 265 265 264 264 265 265 265 265 265 265 266 266 266 266 267 267 268 268 269 269 269 269 270 270 271 271 272 272 272 272 273 273 273 274 276 277 279 282 285 287
270 269 268 268 268 267 267 266 267 267 268 268 268 268 268 269 270 270 270 270 270 271 271 271 271 270 269 269 270 270 271 271 272 272 272 272 272 271 271 270 270 270 268 267 265 264 264 264 264 264 264 264 265 265 265 265 266 266 266 267 267 268 268 268 269 269 269 270 270 271 271 272 272 271 271 271 272 272 273 274 275 277 280 284 286
270 269 268 269 268 267 267 266 267 267 267 268 268 268 268 269 270 270 270 270 271 271 271 271 271 271 271 270 270 270 271 271 271 271 271 271 270 270 270 270 269 269 267 265 264 264 263 263 263 263 264 264 264 264 265 265 265 266 266 266 267 267 268 268 268 269 269 270 270 271 271 271 271 271 271 271 271 271 272 272 274 275 278 281 285
271 269 269 268 268 267 267 267 267 267 267 267 267 268 268 269 270 270 271 271 271 271 271 271 271 271 271 271 271 271 271 271 271 271 270 270 269 269 268 268 268 267 266 264 263 263 263 263 263 263 263 263 264 264 264 265 265 265 266 266 267 267 267 268 268 268 269 270 271 271 271 271 271 271 270 270 270 271 271 271 272 274 276 278 281
271 270 269 269 268 267 267 267 267 267 268 267 267 268 268 269 270 270 270 271 271 271 271 271 271 271 271 271 271 271 271 271 270 270 270 269 268 267 267 267 267 266 265 263 262 262 262 262 262 263 263 263 263 264 264 264 265 265 265 266 266 267 267 268 268 268 270 271 271 271 271 270 270 270 270 270 270 270 270 270 271 272 274 276 278
271 270 269 269 269 268 267 267 267 268 268 268 268 268 268 268 269 270 269 270 270 269 268 269 269 269 269 270 270 270 270 270 270 269 269 268 266 266 267 267 266 265 264 262 262 261 261 261 262 262 262 262 263 263 263 264 264 265 265 265 266 266 267 267 268 268 270 271 271 271 270 270 270 270 269 270 270 270 270 270 270 271 273 274 277
271 269 269 269 268 268 267 267 268 268 268 268 268 268 268 268 269 269 268 269 268 267 266 267 268 268 268 268 269 269 269 269 269 268 267 266 265 266 266 264 263 262 262 261 261 261 261 261 261 261 261 262 262 262 263 263 264 264 265 265 266 266 267 267 268 269 270 271 270 270 270 270 269 269 269 269 269 269 269 270 270 271 272 273 275
271 269 268 268 268 268 268 268 268 268 268 268 268 268 267 267 268 267 267 267 266 265 264 265 266 266 266 267 267 268 268 268 267 266 265 265 265 265 264 263 261 261 261 260 260 260 260 260 260 260 261 261 261 262 262 263 264 264 265 265 266 266 267 268 268 269 270 270 270 270 270 269 269 269 269 269 269 269 269 269 270 270 271 272 274
270 269 268 268 268 268 268 268 267 268 267 267 267 266 266 266 266 265 265 265 265 264 264 264 265 265 265 265 266 266 266 266 266 265 265 264 264 264 264 263 261 261 260 260 260 260 260 260 260 260 261 261 261 261 262 263 263 264 264 265 265 266 267 267 268 269 270 270 270 270 270 269 269 268 268 268 269 269 269 269 269 270 271 272 273
270 268 268 268 268 268 267 267 267 266 266 266 266 265 265 264 264 264 264 264 263 263 263 263 264 264 264 265 265 265 265 265 265 265 264 264 263 263 263 263 262 261 261 260 260 260 260 260 260 260 260 261 261 261 262 262 263 263 264 265 265 266 267 267 267 269 270 270 270 270 269 269 268 268 268 268 268 269 269 269 269 270 271 271 272
269 268 268 268 268 267 267 266 266 266 265 265 265 264 264 263 263 263 263 263 262 262 262 262 263 263 264 264 264 264 264 264 264 263 263 263 263 263 262 262 262 262 261 261 260 260 260 260 260 260 260 260 261 261 261 262 262 263 264 265 265 266 267 267 267 270 271 270 270 270 269 269 268 268 268 268 268 269 269 269 269 270 271 271 272
269 268 268 268 267 266 266 265 265 265 265 264 264 264 263 263 263 262 262 262 262 261 262 262 263 263 263 264 265 264 264 263 263 263 262 262 262 262 262 262 262 262 261 261 261 261 261 260 260 260 260 261 261 261 261 262 262 263 264 265 266 266 267 267 268 270 271 270 270 269 269 268 268 268 268 268 268 268 269 269 269 270 270 271 272
268 268 267 267 266 265 265 265 265 265 264 264 264 263 263 263 262 262 262 262 261 261 261 262 262 263 263 264 264 263 263 263 262 262 262 262 262 262 262 262 262 262 261 261 261 261 261 261 261 260 260 261 261 261 261 262 262 263 264 265 266 266 266 267 269 271 271 270 269 269 268 268 268 268 268 268 268 268 268 268 269 270 270 271 273
268 267 266 266 265 265 265 264 264 264 264 263 263 263 263 263 262 262 262 261 262 262 262 261 262 262 262 263 263 262 262 262 262 262 262 262 262 262 262 262 262 262 262 262 262 262 262 261 261 261 261 261 261 261 261 262 262 263 264 265 266 266 267 268 270 271 270 270 269 269 268 268 268 268 268 268 268 268 268 268 269 269 270 271 273
267 266 265 265 265 265 264 264 264 263 263 263 262 262 262 262 262 262 262 261 261 262 262 262 262 262 262 262 262 262 262 262 262 262 262 262 262 262 262 262 262 262 262 262 262 262 262 262 262 261 262 262 262 262 262 262 263 263 264 265 265 266 267 268 270 271 270 269 269 268 268 268 268 268 267 267 268 268 268 268 269 269 270 271 272
266 265 265 264 264 264 263 263 263 262 262 262 261 261 262 262 261 261 261 261 261 262 262 262 262 262 262 262 262 262 262 262 262 262 262 262 262 262 262 262 262 262 262 262 262 262 262 262 262 262 262 262 263 263 263 263 263 264 265 265 265 266 267 269 270 270 270 269 268 268 268 268 268 268 267 267 267 268 268 268 268 269 270 271 272
265 265 264 264 263 263 262 262 262 261 261 261 260 260 260 260 261 261 261 261 261 261 261 261 261 262 261 261 261 261 261 261 261 261 262 262 262 262 262 262 262 262 262 263 262 262 262 262 262 262 262 262 263 263 263 263 263 264 265 265 266 267 268 269 270 271 270 269 268 268 268 268 267 267 267 267 267 267 267 268 268 269 269 270 272
265 264 264 263 263 262 261 261 261 261 260 260 260 259 259 259 260 260 261 261 261 261 261 261 261 261 261 261 261 261 261 261 261 261 262 262 262 262 262 262 262 262 263 263 262 262 262 262 262 262 262 262 263 263 263 263 263 264 265 265 266 267 268 270 270 271 270 269 268 268 267 267 267 267 267 267 267 267 267 267 268 268 269 270 272
264 264 263 262 262 261 260 260 260 260 259 259 259 259 259 259 259 260 260 261 261 261 261 261 261 261 261 261 261 261 261 261 261 261 261 262 262 262 262 262 262 262 263 263 262 262 262 262 262 262 262 263 263 263 264 263 263 264 265 265 266 268 269 270 271 271 270 269 268 267 267 267 267 267 267 267 267 267 267 267 267 268 269 270 271
264 263 262 261 261 261 260 260 260 259 259 259 258 258 258 258 259 259 260 261 261 261 261 261 261 261 260 260 260 260 260 261 261 261 261 262 262 262 262 262 262 262 262 262 262 262 262 262 262 262 262 263 263 264 264 264 264 264 265 265 267 268 269 270 270 271 270 269 268 267 267 267 267 267 267 267 267 267 267 267 267 268 268 269 270
263 263 262 261 260 260 260 260 260 259 259 259 258 258 258 258 259 259 260 260 260 260 261 261 261 261 260 260 260 260 261 261 261 261 261 262 262 262 262 262 262 262 262 262 262 262 262 262 262 262 262 263 263 264 264 264 264 264 265 266 267 268 269 270 270 271 270 268 268 267 267 267 267 267 267 267 267 267 267 267 267 267 268 268 269
261 262 262 261 260 260 260 260 259 259 259 259 258 258 258 258 259 259 260 260 260 260 261 260 260 260 260 260 260 260 261 261 261 261 261 262 262 262 262 262 262 262 262 262 262 262 262 262 262 262 262 262 263 264 264 264 265 265 265 266 267 268 269 270 270 270 270 268 267 267 267 267 267 267 267 267 267 267 266 267 267 267 267 268 268
Wind_Speed
42 43 43 42 41 41 41 40 40 39 38 38 38 37 36 35 33 31 29 27 25 24 22 22 20 19 18 17 16 15 14 14 13 13 13 14 15 16 17 17 18 20 22 24 24 23 24 25 26 27 25 25 26 25 25 24 25 26 25 26 29 27 28 28 20 19 34 43 45 49 48 43 44 43 36 37 41 39 39 43 44 44 44 45 47
44 44 42 42 42 42 41 40 39 39 38 38 38 37 36 34 33 31 29 27 25 24 23 22 20 19 19 18 17 16 15 14 14 13 14 15 16 17 17 17 19 21 22 23 24 23 23 25 26 26 24 25 26 25 26 26 25 27 27 26 29 29 24 24 24 18 23 34 41 47 50 43 41 44 38 34 40 41 40 41 41 42 45 45 47
43 42 41 42 42 41 40 40 39 39 39 38 38 37 36 34 33 31 29 28 26 24 23 22 21 20 19 18 18 17 16 15 14 14 14 15 16 17 17 18 19 21 22 23 24 23 24 26 27 26 24 25 26 26 26 27 26 26 28 27 28 30 28 27 29 26 24 32 40 43 45 39 36 41 41 38 40 39 39 42 42 44 46 46 47
40 40 41 41 40 40 40 40 39 40 39 39 38 37 36 35 33 31 30 28 26 25 24 22 22 21 20 19 18 17 16 15 14 14 15 16 17 17 17 18 20 21 22 23 24 23 24 26 26 25 25 25 26 26 25 26 27 27 27 29 29 31 32 29 29 29 28 30 35 38 39 38 37 39 40 39 40 39 40 43 44 44 47 47 47
39 40 40 39 39 40 40 39 40 40 40 39 38 37 36 35 33 31 29 27 26 25 23 23 22 21 20 19 18 16 16 15 14 15 15 16 16 17 17 18 20 21 22 23 23 24 25 26 26 24 24 26 26 27 27 27 28 29 29 30 31 31 31 30 29 30 31 31 33 36 38 37 37 38 36 36 39 38 37 40 42 41 42 43 43
38 38 38 38 38 39 39 40 41 41 40 39 38 37 35 34 33 30 28 26 25 24 23 22 22 21 20 19 17 16 16 16 16 15 15 15 15 16 17 18 19 21 21 22 23 24 25 25 26 26 25 28 28 28 29 30 30 33 33 33 32 31 32 33 31 30 32 33 33 34 36 35 34 36 34 33 35 34 33 37 40 38 36 38 39
35 36 36 36 37 38 40 40 40 39 38 37 37 36 35 34 32 29 27 26 24 23 23 22 21 20 19 18 17 17 17 16 16 14 13 14 14 15 16 17 19 20 20 22 22 23 25 25 26 27 26 28 30 30 31 33 33 32 32 31 30 31 32 33 32 32 32 33 32 32 34 34 32 33 33 32 34 35 32 31 34 35 32 32 36
33 34 34 35 36 37 38 37 37 36 35 35 35 34 34 33 31 28 26 25 24 23 22 21 21 19 18 18 17 17 17 15 14 13 13 13 13 14 15 16 18 19 20 21 22 23 25 26 26 27 28 29 30 31 31 31 32 31 31 31 31 33 33 32 31 31 30 31 31 30 31 32 31 31 31 29 27 29 29 26 29 34 34 36 42
34 34 34 35 36 35 35 34 34 34 33 33 34 34 33 32 29 27 26 25 24 23 22 21 20 19 18 17 17 17 16 15 14 13 12 12 12 12 14 16 18 19 19 20 21 22 22 23 24 25 27 28 27 29 29 30 31 32 32 31 30 31 31 30 29 28 27 26 27 28 28 28 29 28 28 28 26 28 32 30 31 35 36 40 47
35 35 35 34 33 33 33 33 33 34 33 33 34 33 33 31 29 28 26 26 25 23 22 21 19 18 18 17 17 16 14 14 12 11 11 11 11 12 14 16 17 18 20 21 22 22 21 21 22 23 25 26 27 29 30 31 33 34 34 33 32 31 30 29 27 27 26 24 24 25 21 21 26 28 29 32 32 33 35 31 30 34 32 30 38
34 34 33 31 32 33 33 33 34 34 34 34 34 34 33 31 30 28 27 26 24 23 22 20 19 19 18 16 16 14 13 12 10 10 11 12 12 14 14 16 18 18 20 21 22 22 21 21 23 24 26 27 29 30 31 32 33 35 36 36 36 35 34 32 30 29 28 25 25 25 21 20 27 31 32 35 35 35 37 33 30 30 24 16 19
32 32 32 32 33 35 35 35 35 35 35 35 36 35 34 32 31 29 28 26 24 23 21 20 19 17 16 15 14 12 12 11 10 11 12 12 13 15 16 17 19 20 20 21 21 20 21 23 24 26 28 29 30 32 33 35 35 36 38 38 38 38 37 37 36 34 32 29 28 27 25 26 29 30 31 33 34 34 34 32 29 25 22 17 14
33 32 32 34 35 36 37 37 37 37 37 38 37 36 35 33 31 29 27 25 23 21 20 18 17 15 14 13 12 11 11 11 10 11 12 13 13 14 17 18 19 21 20 20 21 21 23 26 28 30 32 31 31 33 35 36 37 37 38 39 39 40 39 40 41 40 39 37 33 33 32 32 31 29 29 29 30 30 28 27 27 24 24 24 23
33 32 33 35 36 37 38 38 38 38 38 39 38 37 35 32 30 28 26 24 22 20 18 17 15 14 14 13 12 11 11 11 11 11 12 12 13 15 17 18 19 19 19 19 21 23 26 28 30 32 32 31 33 36 37 37 36 36 37 37 38 39 38 39 40 41 44 43 41 42 41 38 39 39 37 35 36 35 31 30 31 29 31 36 38
32 32 34 35 36 37 38 38 38 38 38 39 38 37 35 33 31 28 26 24 22 21 19 17 16 15 14 13 12 11 12 11 10 10 12 12 13 15 16 17 17 19 19 20 22 24 26 28 31 33 34 34 35 35 33 34 35 36 37 37 37 38 36 37 38 39 42 43 44 47 46 43 45 47 46 45 45 46 45 46 46 42 41 42 39
32 33 34 36 38 39 39 39 39 39 39 39 37 35 34 32 30 28 26 23 21 19 18 17 16 15 13 13 13 12 12 10 9 9 11 12 13 14 15 17 18 20 21 21 23 25 26 29 32 33 34 34 32 29 30 34 36 37 38 39 39 38 36 37 38 39 41 43 44 46 47 47 47 48 48 48 48 50 49 48 48 43 34 27 22
33 35 36 37 39 41 41 41 40 40 40 39 37 34 33 31 29 27 25 23 21 20 19 17 15 14 13 13 13 12 11 9 7 8 10 11 12 13 15 17 19 21 22 22 24 27 27 28 30 32 31 29 30 31 32 35 36 36 37 39 40 40 38 39 40 41 44 46 46 48 49 50 49 49 50 49 49 50 44 36 35 31 22 15 12
34 36 37 39 41 42 44 45 44 43 43 42 40 37 34 32 29 27 26 24 23 21 19 16 15 14 13 12 12 11 11 7 6 7 9 10 11 13 15 18 19 21 22 23 24 26 27 27 27 29 29 30 32 33 33 33 35 35 35 36 37 37 36 37 38 40 41 42 44 46 47 49 49 48 48 47 47 48 42 35 33 28 18 13 11
36 37 38 40 42 43 45 46 46 45 45 44 41 38 35 32 30 27 25 24 22 19 17 16 15 14 12 11 11 11 10 6 4 7 9 9 10 13 15 18 19 21 23 23 23 24 25 25 25 26 28 30 31 31 32 34 36 35 34 33 32 33 35 36 36 38 39 39 41 42 43 44 45 44 44 43 41 42 42 39 37 30 21 17 14
36 36 37 39 41 42 44 45 45 44 45 43 40 38 36 33 30 28 25 23 20 18 17 15 14 12 11 10 10 10 9 5 3 6 8 9 10 12 14 17 20 22 22 22 22 23 23 23 24 25 27 29 30 32 34 34 35 34 33 30 29 32 37 39 39 39 40 39 39 40 41 42 43 42 42 43 42 43 45 44 41 36 30 25 22
34 36 37 39 40 41 42 44 44 43 44 43 40 37 35 33 31 29 27 24 21 19 17 14 13 11 10 9 8 7 7 5 4 5 8 9 10 11 14 17 20 21 21 21 21 22 22 24 25 26 27 29 32 34 33 33 32 32 31 29 31 37 40 40 39 38 37 36 37 38 38 38 39 39 39 40 41 42 44 45 44 43 39 34 29
35 37 38 38 39 40 40 42 43 42 42 42 40 37 34 33 32 30 28 26 23 21 18 15 13 11 9 8 8 7 7 6 6 7 7 8 9 11 14 16 18 19 20 21 21 21 22 24 25 27 30 32 33 32 31 32 31 30 30 32 36 39 40 38 36 35 32 31 32 32 31 30 31 32 34 36 38 39 42 45 47 47 46 43 40
36 37 38 38 38 39 40 41 42 42 42 41 40 37 34 32 32 30 29 27 24 21 18 16 13 11 9 8 9 8 7 7 7 7 7 8 9 11 13 15 15 17 19 20 20 21 21 22 24 28 32 32 31 31 30 30 30 29 31 35 36 37 37 34 32 31 31 30 29 27 25 25 26 28 31 35 38 40 42 45 47 48 47 47 47
37 37 38 38 38 40 41 41 40 41 42 40 38 37 35 32 31 29 28 26 24 21 19 16 14 11 10 9 9 8 7 6 5 6 7 8 9 11 13 13 14 16 17 18 20 20 20 22 26 29 30 29 29 30 29 28 29 30 33 35 35 35 33 31 30 30 29 28 27 25 23 23 23 25 27 30 34 38 40 42 45 47 46 46 47
37 37 38 38 40 41 41 41 41 41 41 40 39 38 36 33 31 29 27 26 24 21 18 16 14 12 11 11 10 8 7 5 4 4 6 7 9 10 12 13 14 14 15 18 19 19 21 24 26 26 25 26 28 28 27 27 28 30 32 33 32 32 31 30 30 29 26 25 25 25 25 25 25 27 28 30 32 35 37 38 41 43 43 44 45
36 36 36 37 40 44 43 41 40 40 40 39 39 39 39 36 33 30 28 25 22 20 18 16 14 13 12 12 10 8 6 4 4 4 6 8 9 10 11 13 13 13 15 16 16 17 21 22 22 22 23 24 25 26 26 28 28 29 30 30 30 31 30 30 29 27 26 25 25 25 26 27 29 30 30 31 31 32 33 35 36 37 38 38 37
34 35 36 36 39 44 45 42 40 40 39 37 36 37 38 37 34 32 30 25 20 19 18 17 15 14 14 12 10 7 5 4 4 6 8 8 9 10 11 11 11 11 14 14 13 16 20 19 18 21 22 23 24 25 26 28 29 29 29 29 30 30 29 29 29 28 27 26 26 26 27 28 30 29 27 27 28 30 31 33 32 32 33 33 29
34 35 36 36 37 41 44 44 42 40 37 35 36 36 35 33 32 31 31 28 24 22 20 17 16 16 15 13 10 7 6 5 6 7 8 7 8 9 10 10 9 10 12 13 13 16 18 18 20 22 23 24 25 26 26 28 29 29 30 30 30 30 30 30 30 27 26 26 26 27 28 29 28 26 25 26 29 29 29 31 31 31 32 29 21
33 34 35 36 35 36 39 42 43 41 36 32 32 32 31 29 28 26 25 25 25 24 22 19 18 17 15 13 11 9 7 6 6 6 5 5 6 8 8 8 8 9 10 11 13 16 18 19 21 22 23 24 25 25 26 27 28 29 30 30 30 30 30 30 29 28 28 28 27 27 28 27 26 26 26 26 28 29 29 29 30 30 29 25 17
32 33 34 34 35 36 38 40 43 43 37 32 29 26 23 22 24 24 22 20 19 19 18 18 17 15 13 12 10 9 8 5 4 3 3 4 5 6 7 7 7 9 10 11 14 17 18 19 20 21 21 23 23 24 26 27 27 28 30 30 30 30 30 30 30 30 30 29 28 28 26 24 25 27 26 25 27 29 29 29 29 29 26 21 14
30 31 33 34 36 39 42 43 43 41 38 36 35 30 23 19 18 19 20 18 16 15 14 14 13 13 11 10 8 8 6 4 2 0 2 3 5 6 6 6 8 9 10 13 16 18 17 17 18 20 21 21 22 23 25 26 26 28 29 30 30 30 30 32 33 33 32 30 28 27 26 24 25 26 26 26 28 29 30 30 29 27 25 21 13
32 32 34 35 36 40 46 48 45 41 38 36 35 33 29 24 19 17 17 16 15 14 13 12 12 11 10 9 8 7 5 4 3 3 4 4 6 6 6 7 9 10 13 16 17 17 18 18 18 20 21 21 22 24 25 26 27 28 29 29 30 31 32 33 34 34 32 29 28 27 26 26 27 27 26 26 26 27 28 28 27 26 25 22 18
36 35 36 35 35 38 45 49 47 44 39 34 32 32 31 28 25 23 20 17 15 14 13 12 12 12 11 9 8 7 6 5 5 5 5 6 7 7 7 9 11 12 15 19 18 17 18 18 18 20 21 22 24 25 26 27 28 29 29 29 29 32 34 35 35 33 31 30 29 29 29 29 28 27 26 26 25 25 25 26 26 25 22 18 16
39 39 41 41 38 41 47 51 51 46 40 35 33 33 31 28 28 28 24 21 19 17 15 14 13 13 12 10 8 8 7 7 7 6 6 7 7 7 7 10 12 14 18 20 18 16 17 18 19 21 22 24 25 26 26 28 29 29 30 30 31 33 35 35 34 33 31 31 31 30 30 30 29 27 26 25 23 22 23 25 24 21 18 15 12
35 37 42 42 40 42 47 50 50 44 36 33 34 33 30 29 29 27 25 23 23 21 18 17 15 13 12 11 8 7 8 8 7 6 7 8 6 6 8 13 16 18 20 21 19 18 18 18 20 22 23 24 26 26 27 29 30 30 31 32 32 34 35 35 34 33 32 32 33 32 31 31 29 28 27 25 23 21 21 23 24 21 19 18 14
33 35 39 39 39 42 44 43 43 39 33 32 33 32 31 31 29 27 25 24 23 21 20 20 17 14 13 12 10 8 8 8 8 7 8 7 7 8 11 15 16 16 17 18 19 19 19 19 20 22 23 24 26 27 28 29 30 31 33 33 32 33 34 34 35 34 33 34 34 33 32 31 29 29 27 24 23 22 21 22 25 24 23 22 19
36 40 43 40 38 41 40 36 35 33 30 31 31 30 30 30 28 27 25 24 23 22 21 21 19 15 13 13 13 10 8 8 7 6 6 6 7 10 13 14 14 13 14 17 18 18 20 21 21 23 25 26 27 28 29 30 31 32 34 34 34 33 34 35 36 34 34 35 35 34 32 31 30 30 27 23 21 22 22 24 25 25 25 26 23
36 42 46 40 36 37 36 32 31 30 29 30 30 29 29 28 27 26 25 23 23 23 21 20 20 17 15 14 14 11 9 8 7 5 4 6 8 11 13 13 13 13 15 16 18 19 21 23 24 25 27 28 28 30 30 31 32 33 34 34 35 35 35 37 36 34 34 35 35 33 33 32 31 30 28 24 22 22 23 25 25 23 22 22 19
32 38 42 39 35 35 34 32 31 30 29 29 28 27 27 26 25 24 24 23 22 22 21 20 20 18 16 14 13 11 8 6 5 4 5 7 8 10 12 13 14 15 16 18 19 20 22 24 26 27 28 29 30 31 31 32 33 34 34 35 35 35 37 40 38 34 33 35 35 34 33 33 32 31 29 26 24 23 23 24 24 22 19 17 17
33 36 39 38 36 35 34 34 33 31 30 28 27 26 25 24 24 24 23 22 21 21 21 21 20 18 15 12 10 8 6 5 5 5 5 6 7 9 10 12 14 16 17 19 20 21 22 24 26 27 28 29 30 31 31 32 33 34 34 35 34 34 39 43 39 33 33 37 36 34 34 34 34 32 30 27 26 25 24 24 26 25 22 21 21
33 34 35 35 34 33 32 31 30 30 29 28 28 27 25 24 24 24 23 22 22 21 21 21 20 18 14 10 7 5 5 5 5 5 5 6 7 8 10 11 13 15 16 18 20 21 23 25 26 27 28 29 30 31 32 33 34 33 34 35 34 36 42 43 37 32 35 38 37 35 36 36 34 32 30 29 29 28 26 26 27 26 23 23 24
35 34 33 32 33 33 31 29 28 29 29 28 26 26 26 26 26 25 24 23 22 22 20 19 18 16 13 9 6 6 5 5 5 5 5 6 6 7 9 11 13 14 16 17 19 21 23 25 26 27 28 30 31 31 31 33 34 34 34 35 35 38 42 41 35 33 37 39 38 38 38 37 35 33 31 30 30 28 26 26 26 25 22 22 24
35 35 35 34 34 33 32 32 31 30 29 28 27 27 27 27 26 25 24 23 22 22 21 20 18 16 13 9 7 7 6 5 5 4 5 5 6 8 10 11 12 14 15 17 19 21 23 25 26 27 28 29 30 31 31 32 33 33 34 35 36 39 40 37 35 36 39 40 40 41 40 38 36 35 32 32 31 29 27 26 25 24 22 22 23
36 36 36 35 33 32 32 33 32 29 28 28 28 27 27 26 25 24 24 23 22 22 21 20 18 16 14 11 9 8 6 5 5 4 5 5 7 8 10 11 12 14 15 16 18 20 22 24 26 28 29 30 30 31 32 32 33 33 34 35 37 39 38 36 37 39 41 41 42 43 41 40 38 36 34 33 32 30 28 27 26 24 24 22 20
37 36 35 34 33 33 32 32 32 31 30 30 27 26 25 25 24 24 23 23 22 21 20 19 18 16 14 12 10 8 7 5 5 4 5 6 7 9 10 11 13 14 15 17 18 19 21 23 25 28 30 31 31 32 33 33 34 34 34 35 37 37 38 39 40 41 43 44 44 43 42 41 39 37 36 35 33 30 29 29 28 26 24 21 18
35 36 36 34 33 32 32 33 33 32 31 29 27 25 24 24 24 24 23 23 23 22 20 19 18 16 14 12 10 8 7 6 5 5 5 6 7 9 10 11 13 14 15 17 18 19 21 23 24 27 29 31 32 33 33 34 34 34 35 36 37 37 39 43 44 42 43 46 46 43 42 41 40 39 37 36 34 33 31 30 30 27 24 23 21
35 35 36 35 35 34 33 33 33 31 29 28 26 25 24 23 23 23 23 23 23 22 20 19 17 15 13 11 10 8 7 5 5 5 5 6 8 9 10 12 13 15 16 17 18 20 22 23 24 26 28 31 32 33 33 34 34 35 36 37 37 38 43 47 45 41 43 48 47 44 43 42 40 40 39 37 36 34 31 31 31 29 26 25 23
35 35 35 35 37 38 36 33 32 29 27 26 26 25 25 24 24 23 23 23 22 21 20 18 16 14 12 11 9 7 6 5 5 5 6 7 8 9 11 12 14 15 17 18 19 21 23 24 24 26 28 30 32 33 33 34 35 36 37 38 38 40 45 48 44 41 45 49 47 44 43 42 40 40 40 38 36 34 31 30 31 31 28 26 24
39 39 38 37 38 38 35 32 29 28 27 27 26 25 24 24 23 23 23 22 21 20 18 17 15 13 12 10 8 7 6 5 5 5 6 7 8 10 11 13 14 16 17 19 20 22 23 25 25 26 28 30 31 32 33 34 36 37 37 38 39 42 46 47 44 42 45 48 47 44 43 43 42 40 39 37 37 36 32 30 30 31 29 25 23
39 41 40 37 35 33 31 30 29 28 27 27 26 25 24 23 23 23 23 22 20 19 17 15 14 12 10 9 7 6 5 5 5 5 6 7 9 10 11 13 14 16 18 19 21 22 24 25 26 27 28 30 30 31 33 34 35 37 37 37 39 43 45 46 44 44 45 47 46 44 43 44 43 41 40 38 37 36 33 31 31 31 28 24 22
35 37 37 34 31 30 30 30 29 27 26 26 26 25 24 23 23 23 22 21 19 18 16 14 13 11 9 8 6 5 5 4 4 6 7 8 10 11 12 14 16 17 19 20 21 22 24 25 26 27 29 29 30 31 32 33 36 37 37 36 38 42 44 44 44 44 44 45 45 44 44 44 43 41 41 40 38 37 35 33 32 30 27 24 22
Wind_Direction
201 202 202 201 201 200 201 201 200 199 198 198 199 199 200 201 201 202 203 206 209 213 219 223 225 227 229 233 239 243 245 248 253 258 260 262 264 266 267 267 268 270 273 274 274 275 275 276 277 278 279 280 280 280 278 277 278 277 276 276 273 269 266 265 265 273 278 279 281 284 287 293 296 294 293 292 290 289 287 284 283 284 284 284 284
201 202 201 200 201 200 199 199 198 197 196 196 197 198 198 199 199 200 201 205 209 214 219 222 223 225 228 233 237 240 244 247 250 253 254 257 261 263 266 268 270 272 274 275 275 277 278 278 278 279 280 280 279 279 280 280 280 280 278 275 275 273 272 277 280 281 283 284 284 286 288 289 291 292 293 291 289 289 287 284 284 285 285 284 283
201 201 199 199 199 198 197 197 196 195 194 194 195 196 196 197 197 198 200 203 209 215 218 220 222 225 229 233 235 238 242 245 248 250 253 256 260 263 266 267 269 272 273 274 276 278 279 279 278 280 281 281 280 279 280 281 279 278 277 274 272 274 276 279 279 279 282 282 282 285 288 287 286 289 292 291 287 287 287 286 287 286 285 285 284
201 199 200 200 197 195 195 195 194 194 193 193 193 194 195 195 196 198 200 203 208 212 216 218 221 225 229 231 233 237 241 244 247 249 251 255 260 264 266 268 269 271 272 274 277 278 278 277 278 280 281 280 279 279 279 279 278 275 274 273 273 273 274 272 270 272 277 279 279 280 284 287 287 287 289 289 287 287 287 288 287 286 286 286 285
200 199 199 197 194 194 194 193 194 194 193 193 192 192 193 193 194 197 199 203 207 210 213 216 220 225 228 230 234 237 240 242 244 246 250 254 259 263 267 270 271 271 272 274 276 277 276 276 277 279 281 279 279 280 279 278 276 274 272 271 271 271 271 269 268 270 272 274 278 279 281 284 285 285 285 286 287 288 287 286 286 286 287 287 285
200 198 197 195 193 193 192 193 194 194 193 192 190 190 190 191 193 196 200 202 204 208 212 216 220 224 227 231 234 236 238 239 241 245 250 253 257 262 266 270 271 271 273 275 277 276 274 274 277 279 278 277 278 278 278 277 275 272 270 269 267 265 265 265 265 266 268 270 273 275 277 279 281 282 282 282 285 287 288 289 288 287 287 286 285
199 198 197 195 193 193 193 194 194 193 192 190 187 187 187 189 192 194 199 202 203 207 211 215 221 223 226 230 233 235 236 238 243 247 250 254 257 262 266 269 270 272 274 276 277 276 275 275 277 279 278 277 278 278 277 277 274 270 267 266 265 264 263 262 261 260 262 267 269 270 275 277 276 278 281 282 282 282 283 287 290 290 290 288 288
198 197 196 195 195 195 193 193 193 191 189 186 184 184 184 187 190 193 197 200 203 208 211 214 218 221 227 231 232 235 237 240 245 247 249 253 256 261 265 266 268 273 275 274 274 274 275 276 277 278 278 277 277 276 273 272 271 269 266 264 262 261 260 261 261 259 259 263 266 267 272 275 274 275 278 279 278 279 278 281 286 289 292 293 291
196 196 196 197 196 194 191 190 190 188 186 183 181 181 182 185 188 191 195 198 202 206 210 213 217 221 227 231 232 235 238 243 247 248 251 254 255 260 264 266 271 274 272 270 271 272 273 274 274 275 278 278 278 279 277 276 276 277 277 275 270 263 259 258 259 258 258 260 263 265 268 270 269 271 274 273 272 276 278 279 281 283 288 291 289
195 196 197 197 194 190 188 187 185 184 182 180 179 179 181 183 186 190 193 197 200 203 207 212 216 220 225 229 233 236 240 247 251 251 251 253 259 264 267 270 271 272 271 272 275 276 275 274 273 275 280 282 283 284 284 283 282 282 283 283 280 276 273 269 266 262 260 260 260 261 262 263 262 260 264 269 269 273 277 277 277 281 286 287 286
194 195 195 194 190 186 185 183 182 181 179 178 177 178 180 182 186 189 192 195 199 202 207 211 214 220 224 227 231 236 244 253 257 253 246 245 255 262 265 269 269 269 272 275 278 279 279 278 278 279 280 282 283 285 286 285 283 283 284 283 282 281 279 279 278 275 270 266 262 258 253 258 260 256 260 267 268 269 274 273 272 276 280 280 286
192 193 192 189 186 184 183 180 179 178 177 176 177 178 180 182 185 189 192 194 197 201 206 209 212 218 221 223 228 236 248 258 258 253 250 249 254 260 264 268 270 273 276 278 278 281 283 283 283 283 282 283 283 283 283 285 285 284 285 284 283 281 279 278 278 278 277 276 273 267 260 261 260 254 256 262 262 263 267 266 265 267 271 274 278
190 190 188 187 185 183 181 178 177 177 177 177 178 179 180 182 184 188 189 191 195 199 203 207 210 212 214 219 228 240 252 260 257 252 255 259 258 262 268 271 274 278 280 281 280 282 284 286 286 285 284 284 285 284 283 284 285 284 283 282 280 277 275 274 272 272 274 276 277 275 273 272 270 262 259 261 262 265 267 264 265 266 269 273 273
188 187 185 185 184 181 180 178 176 176 177 177 178 179 179 180 182 185 186 188 192 196 199 203 204 206 211 219 230 243 253 258 257 254 256 261 264 268 272 276 280 282 282 282 282 284 286 285 284 286 288 287 287 288 288 286 286 287 286 284 281 278 273 271 269 268 269 270 271 273 274 274 274 274 274 273 270 270 270 268 269 268 268 272 273
185 185 184 183 182 180 179 178 176 175 176 177 177 177 178 179 180 182 185 188 191 194 197 199 201 206 212 220 230 242 252 254 252 253 258 264 268 272 277 281 284 283 283 283 284 286 288 286 285 287 291 292 289 288 290 291 292 295 296 294 291 287 279 273 270 269 267 266 265 267 270 270 270 272 274 273 271 270 270 270 270 271 272 274 275
183 184 183 182 182 180 179 177 176 175 176 176 175 175 176 176 178 179 181 184 187 190 193 197 202 207 210 219 229 239 249 253 247 248 258 266 271 276 282 286 287 285 285 287 289 290 289 288 289 290 291 293 293 294 298 301 302 302 301 298 295 290 284 279 278 275 273 270 267 267 269 270 269 270 269 267 267 267 267 267 269 269 270 273 272
184 184 183 183 182 181 179 177 175 174 175 175 174 174 175 175 176 178 177 179 182 187 192 196 200 205 209 217 228 240 251 252 240 242 257 266 274 282 287 289 288 288 288 290 293 294 292 292 294 296 297 299 302 306 308 307 306 302 298 297 294 291 287 285 283 280 278 276 273 272 273 273 272 272 271 270 268 265 262 260 262 263 263 262 261
186 185 185 184 182 181 181 178 176 175 176 177 175 175 175 175 176 179 179 180 183 186 190 193 198 205 212 218 227 242 252 245 226 242 259 266 275 284 289 290 289 289 292 294 295 297 298 299 301 302 303 306 308 310 311 309 306 303 300 298 294 291 292 292 289 286 282 279 276 274 273 272 272 272 273 273 273 270 265 261 260 259 258 258 260
188 185 185 183 181 181 181 180 178 177 177 177 176 174 174 174 175 177 179 180 181 184 187 192 197 204 214 223 228 236 244 241 223 243 259 268 277 284 289 291 290 291 295 297 298 301 303 304 306 306 306 309 311 312 313 312 310 308 306 303 298 296 299 298 293 290 286 280 275 272 270 269 269 269 269 271 272 272 270 268 265 259 256 260 264
187 184 182 180 180 180 180 180 179 177 176 176 175 174 173 172 172 174 175 177 178 181 185 190 197 206 215 223 222 223 233 241 237 249 261 272 278 284 291 292 292 294 297 301 305 308 308 307 307 308 310 312 313 314 315 315 314 312 310 306 301 300 301 300 297 294 291 285 280 275 271 268 266 265 266 268 269 269 270 270 267 263 261 263 264
182 180 178 177 178 179 180 181 179 178 177 175 172 171 171 172 172 172 172 172 173 176 183 190 201 209 212 213 213 216 227 240 257 261 264 273 280 288 294 294 294 298 304 308 310 312 312 311 309 310 313 316 318 319 318 317 317 315 311 307 303 302 304 306 306 305 299 292 288 281 273 267 263 261 262 264 264 266 267 267 266 264 262 260 259
178 176 174 175 176 177 179 180 178 176 174 172 169 168 169 171 172 170 169 169 170 174 181 190 199 203 200 204 212 215 217 230 250 259 264 275 285 293 297 297 301 308 313 314 315 314 312 309 308 313 319 321 322 323 322 320 319 316 312 309 309 310 312 313 312 309 302 295 292 285 274 266 262 261 260 260 261 263 264 265 266 265 261 258 255
174 172 171 172 174 175 176 177 177 174 172 170 168 166 166 168 168 168 168 167 167 173 179 184 189 193 195 202 209 212 216 228 245 256 267 281 292 299 301 303 309 316 318 318 317 314 310 307 312 319 323 325 326 326 325 323 319 316 314 315 316 317 317 315 311 308 304 301 298 292 283 273 265 261 260 260 261 263 263 264 265 264 261 258 255
170 170 171 171 172 173 174 174 175 174 172 169 166 163 163 164 163 164 166 166 166 170 175 177 180 186 194 200 201 205 218 236 256 266 276 288 298 303 305 309 316 319 320 319 314 311 311 315 320 324 325 328 330 330 328 325 321 319 319 320 321 321 318 314 311 308 305 303 301 299 296 291 283 275 271 270 269 267 265 264 265 263 261 259 257
170 170 170 171 172 172 171 170 172 173 172 169 165 162 161 161 160 162 165 166 166 168 169 174 178 182 191 198 197 201 214 237 267 285 289 292 299 306 309 314 318 320 322 320 314 312 317 321 324 328 330 333 335 333 330 327 324 323 323 323 323 321 317 313 311 309 307 305 303 301 299 299 297 294 292 291 288 281 274 268 267 265 263 261 259
171 171 170 170 171 169 167 166 167 168 169 170 168 166 165 163 162 164 166 166 166 167 167 169 175 180 187 193 194 197 213 236 268 293 296 291 296 309 315 316 319 323 324 320 315 318 325 328 330 333 334 336 335 332 329 327 326 326 326 325 323 320 317 314 312 310 308 306 304 303 300 300 301 299 298 297 294 288 282 275 268 264 262 260 257
172 172 170 168 167 168 166 163 163 164 165 166 167 167 167 166 164 164 166 166 165 167 167 168 173 179 184 187 188 194 211 236 260 276 287 295 306 315 319 321 325 328 326 321 321 329 334 336 337 337 337 336 334 331 328 327 329 328 326 325 323 320 319 317 314 311 308 305 305 303 301 302 303 300 297 294 290 289 288 283 273 263 257 257 257
174 173 170 166 166 168 166 162 161 161 162 163 165 165 166 166 166 169 172 171 169 167 167 170 175 177 177 178 182 191 209 233 252 269 286 305 320 324 329 334 337 336 333 332 336 343 347 348 346 343 343 339 334 331 330 331 331 330 327 325 324 322 322 322 319 313 308 306 306 305 303 303 303 300 298 295 291 291 292 290 285 273 260 254 254
175 172 170 167 167 168 166 164 162 159 159 160 163 165 167 167 167 170 175 179 177 172 168 170 174 174 174 175 178 185 201 228 254 275 295 314 327 337 345 347 345 346 345 343 348 356 358 355 349 346 344 338 332 330 331 332 331 330 328 327 325 324 324 326 323 318 313 310 308 305 303 303 304 303 302 299 295 294 293 293 294 289 273 259 251
174 173 172 171 169 167 166 164 162 159 157 156 155 158 162 166 169 170 172 176 177 170 165 166 169 170 171 175 182 190 203 231 263 289 323 334 341 352 359 360 1 4 1 359 5 8 2 353 348 345 341 335 331 329 331 331 330 329 328 327 326 325 325 325 324 321 317 312 309 306 302 301 305 307 306 302 299 298 296 292 292 294 286 272 258
173 177 178 176 173 169 164 162 161 159 157 155 153 151 151 156 167 172 169 165 164 164 163 163 165 167 168 168 175 191 208 227 242 353 28 14 11 17 20 19 21 21 15 13 15 12 1 350 345 342 336 331 329 328 329 329 328 327 327 326 327 327 325 325 324 322 317 312 308 306 303 302 305 306 303 301 300 298 298 295 292 291 289 282 273
177 180 181 177 174 170 164 161 159 156 153 153 152 149 147 145 150 161 167 166 166 167 164 160 160 164 166 161 157 165 180 180 146 95 63 49 38 35 37 35 32 29 25 24 21 12 1 351 343 337 333 330 328 328 328 328 326 326 326 325 325 326 324 323 322 318 314 311 309 308 307 306 306 304 300 300 300 297 296 296 293 291 290 287 283
181 179 177 174 172 170 166 162 160 156 153 152 152 151 151 149 150 155 162 167 170 167 160 157 156 154 156 158 155 152 154 147 122 93 72 60 49 41 45 48 42 33 27 26 21 10 359 351 341 335 333 329 327 327 328 327 325 325 324 323 323 323 321 320 320 317 313 313 313 311 310 309 308 305 300 298 297 295 293 293 291 289 288 287 285
183 179 176 173 171 171 169 165 161 158 155 154 155 156 156 156 156 156 158 163 166 160 151 149 151 149 148 149 147 146 142 128 111 95 76 63 52 43 44 49 46 36 29 26 20 7 357 350 342 337 333 328 327 328 327 326 325 325 323 322 322 321 320 321 322 318 315 317 316 313 312 311 309 306 302 298 295 293 291 291 289 287 284 282 282
183 181 178 175 172 171 170 166 162 158 156 156 157 157 157 158 160 160 161 163 160 152 145 145 146 147 147 143 134 136 136 123 108 94 77 64 49 30 34 38 34 28 23 19 14 5 357 348 339 334 330 328 328 328 327 326 326 325 323 322 322 321 322 322 320 316 316 320 319 315 313 313 311 307 304 299 295 291 289 288 287 284 280 279 278
180 179 178 178 174 169 167 165 161 159 158 157 157 157 156 158 161 162 163 162 156 149 149 150 147 145 149 147 135 126 125 116 102 90 80 65 39 26 37 40 31 21 15 12 7 1 354 346 337 332 330 329 329 328 327 325 325 324 323 322 321 320 321 322 319 316 318 322 320 317 315 314 313 310 306 299 294 290 287 287 286 283 278 275 274
181 178 176 176 172 166 163 162 161 159 157 155 154 153 153 156 158 158 159 159 155 151 152 154 151 149 154 156 148 135 124 119 115 106 90 69 43 38 44 44 33 21 13 8 3 356 349 344 339 335 333 331 330 329 327 326 325 324 323 323 323 321 321 321 319 316 319 322 321 319 318 317 315 313 307 300 296 291 287 287 286 281 277 274 272
181 177 173 170 167 162 158 156 155 154 152 151 151 150 150 152 155 155 156 156 154 151 151 154 155 153 153 156 155 148 143 147 150 136 86 57 45 42 43 41 33 24 15 8 3 356 349 346 343 339 336 333 331 330 328 327 326 326 324 324 324 323 323 323 320 317 321 324 323 320 319 318 317 315 309 302 296 292 288 287 286 280 276 273 270
173 171 168 165 161 158 154 150 149 149 148 148 149 148 148 150 151 152 153 152 151 150 150 151 154 155 152 152 153 151 150 151 144 111 69 57 51 45 41 36 30 24 16 8 5 359 351 348 346 341 337 335 332 331 330 328 327 326 325 325 325 324 325 324 320 318 322 325 323 321 321 320 318 316 312 305 299 294 289 288 287 282 277 273 268
166 166 164 160 156 154 151 148 147 148 149 149 149 148 149 150 151 151 151 150 149 150 151 151 152 151 147 144 143 146 148 140 122 102 83 72 61 49 43 35 29 23 16 8 5 360 353 350 347 342 338 336 334 332 332 330 328 327 327 326 325 325 325 323 319 317 323 326 323 322 322 321 320 318 314 309 306 302 297 294 291 284 277 272 270
160 159 158 156 152 148 146 145 146 148 150 151 150 150 150 151 151 151 151 149 150 151 151 150 149 145 137 132 139 157 163 146 129 114 92 78 65 51 44 36 29 23 17 9 5 1 356 352 348 343 340 338 336 334 333 332 331 329 328 327 327 326 325 323 320 320 325 327 325 324 323 322 322 320 316 313 311 307 301 297 292 284 277 272 269
155 153 152 151 148 145 143 142 145 147 148 149 150 151 151 151 150 151 150 149 150 150 147 146 146 142 132 125 143 172 177 154 133 116 91 76 63 48 42 36 28 22 17 11 6 2 357 353 348 345 341 339 337 335 334 333 332 330 328 328 328 326 325 323 322 325 329 330 328 326 325 323 322 321 317 315 315 310 304 299 294 287 281 276 270
152 150 149 148 148 147 146 146 146 147 149 150 151 152 151 150 150 149 148 148 149 149 147 147 149 148 140 135 154 175 174 152 131 109 84 69 55 43 37 32 25 19 15 11 8 4 359 354 349 346 344 342 340 338 335 334 333 331 329 328 328 327 325 324 325 329 333 332 329 328 327 326 325 324 321 319 319 315 309 304 300 292 285 279 274
150 147 146 147 147 145 145 145 146 147 148 149 149 149 149 149 147 147 147 147 149 151 150 150 154 156 153 155 165 170 162 145 128 103 76 60 48 39 32 26 19 14 11 9 7 3 359 355 351 349 347 347 346 345 342 340 338 335 332 330 328 327 326 326 328 333 335 334 331 330 329 328 327 326 325 323 322 320 315 311 306 299 291 285 278
148 146 146 145 144 142 143 144 145 145 145 145 144 145 147 147 147 147 148 148 149 151 151 152 154 157 158 160 162 160 150 138 122 97 71 53 42 35 28 21 15 10 8 7 4 0 357 355 353 350 349 349 350 350 348 346 344 340 337 334 330 328 328 329 331 335 338 337 334 332 330 329 329 328 328 326 325 323 320 315 309 303 296 289 283
147 145 144 143 141 140 140 142 143 144 144 143 142 142 145 147 148 149 149 150 150 151 152 154 156 157 158 158 157 152 145 135 115 90 68 51 41 33 24 19 14 11 9 8 4 0 358 356 354 352 350 350 352 352 352 349 346 344 342 338 335 333 333 334 335 338 341 341 338 334 332 331 330 329 329 328 327 325 321 315 310 305 299 293 289
146 144 143 142 140 138 139 140 141 141 142 142 142 143 144 146 147 149 149 150 151 153 154 156 157 156 154 153 151 147 142 129 107 85 65 48 39 30 22 17 13 10 9 8 6 3 1 359 357 355 353 353 354 354 354 351 348 345 343 342 339 338 338 338 339 342 344 343 341 337 335 333 332 332 332 331 330 327 322 317 314 311 305 299 296
144 142 140 139 138 137 138 139 140 140 141 142 142 143 144 145 147 148 149 150 153 155 156 156 154 152 150 149 148 146 138 121 98 78 60 46 37 28 20 16 11 8 8 8 6 5 3 1 359 358 357 357 357 357 355 353 349 346 345 344 341 339 340 342 343 345 346 346 344 341 339 336 335 334 334 334 333 331 325 319 318 317 312 307 302
143 140 137 136 136 137 138 139 140 141 142 142 142 142 144 146 146 147 150 152 154 156 156 153 150 149 149 148 147 143 130 109 90 70 54 43 34 25 19 15 11 8 7 6 6 5 4 3 1 360 360 0 0 360 358 354 350 347 346 344 341 340 342 345 347 348 349 348 346 344 342 340 338 338 337 336 336 335 328 321 321 322 318 313 312
138 136 134 133 133 136 138 139 140 140 141 142 142 143 144 146 147 149 151 154 154 154 152 150 148 149 149 147 144 136 118 100 82 63 50 39 30 23 17 11 9 8 6 5 4 4 3 2 1 1 2 2 2 2 0 356 352 350 347 344 341 342 346 348 349 350 351 350 348 347 345 344 342 341 341 339 339 339 335 329 328 327 324 320 322
130 130 130 130 132 134 137 138 139 140 142 143 144 144 145 147 148 151 154 155 154 152 150 149 148 149 148 143 138 126 107 89 68 53 45 33 24 19 12 7 6 5 2 1 1 1 1 1 1 2 3 3 3 4 3 359 356 355 351 346 344 346 349 350 350 351 352 352 352 350 349 347 345 344 344 343 342 341 340 336 333 330 329 329 331